CW9148 Weather Reports


time (UTC)temp
C
wind
direction
speed
KPH
gust
KPH
rain 1hr
cm
rain 24hr
cm
rain mn
cm
humidity
%
barometer
mb
20260905043817 12 204 0.0 0.0 0.00 0.08 0.08 52 1015.9
20260905043317 13 204 0.0 0.0 0.00 0.08 0.08 53 1015.9
20260905042839 13 204 0.0 0.0 0.00 0.08 0.08 52 1015.9
20260905042338 13 204 0.0 0.0 0.00 0.08 0.08 52 1015.7
20260905041836 13 204 0.0 0.0 0.00 0.08 0.08 52 1015.7
20260905041336 13 204 0.0 0.0 0.00 0.08 0.08 52 1015.7
20260905040834 13 204 0.0 0.0 0.00 0.08 0.08 52 1015.5
20260905040315 13 204 0.0 0.0 0.00 0.08 0.08 51 1015.5
20260905035815 13 204 0.0 0.0 0.00 0.08 0.08 52 1015.5
20260905035340 13 204 0.0 0.0 0.00 0.08 0.08 52 1015.4
20260905034817 13 204 0.0 0.0 0.00 0.08 0.08 52 1015.4
20260905034323 13 204 0.0 0.0 0.00 0.08 0.08 52 1015.4
20260905033824 13 204 0.0 0.0 0.00 0.08 0.08 52 1015.3
20260905033323 13 204 0.0 0.0 0.00 0.08 0.08 52 1015.3
20260905032821 13 204 0.0 0.0 0.00 0.08 0.08 51 1015.3
20260905032320 13 204 0.0 0.0 0.00 0.08 0.08 51 1015.1
20260905031820 13 204 0.0 0.0 0.00 0.08 0.08 51 1015.1
20260905031321 13 204 0.0 0.0 0.00 0.08 0.08 52 1015.1
20260905030819 13 204 0.0 0.0 0.00 0.08 0.08 52 1015.1
20260905030319 13 204 0.0 0.0 0.00 0.08 0.08 53 1015.1
20260905025815 13 204 0.0 0.0 0.00 0.08 0.08 52 1015.1
20260905025314 13 204 0.0 0.0 0.00 0.08 0.08 53 1015.0
20260905024841 13 204 0.0 0.0 0.00 0.08 0.08 53 1015.0
20260905024338 14 204 0.0 0.0 0.00 0.08 0.08 52 1015.0
20260905023834 14 204 0.0 0.0 0.00 0.08 0.08 54 1015.0
20260905023357 14 204 0.0 0.0 0.00 0.08 0.08 52 1015.0
20260905022836 14 204 0.0 0.0 0.00 0.08 0.08 53 1015.0
20260905022336 14 204 0.0 0.0 0.00 0.08 0.08 52 1014.9
20260905021835 14 204 0.0 0.0 0.00 0.08 0.08 55 1014.9
20260905021334 14 204 0.0 0.0 0.00 0.08 0.08 54 1014.9
20260905020859 14 204 0.0 0.0 0.00 0.08 0.08 55 1015.0
20260905020337 14 204 0.0 0.0 0.00 0.08 0.08 54 1015.0
20260905015815 14 204 0.0 0.0 0.00 0.08 0.08 51 1015.0
20260905015339 14 204 0.0 0.0 0.00 0.08 0.08 50 1015.0
20260905014838 15 204 0.0 0.0 0.00 0.08 0.08 51 1015.0
20260905014336 15 204 0.0 0.0 0.00 0.08 0.08 51 1015.0
20260905013830 15 204 0.0 0.0 0.00 0.08 0.08 50 1014.9
20260905013330 15 204 0.0 0.0 0.00 0.08 0.08 50 1014.9
20260905012856 15 204 0.0 0.0 0.00 0.08 0.08 49 1014.9
20260905012333 15 204 0.0 0.0 0.00 0.08 0.08 49 1014.9
20260905011833 15 204 0.0 0.0 0.00 0.08 0.08 47 1014.9
20260905011314 15 204 0.0 0.0 0.00 0.08 0.08 46 1014.9
20260905010836 16 204 0.0 0.0 0.00 0.08 0.08 45 1014.9
20260905010335 16 204 0.0 0.0 0.00 0.08 0.08 43 1014.9
20260905005836 16 204 0.0 0.0 0.00 0.08 0.08 44 1014.9
20260905005335 16 206 0.0 0.0 0.00 0.08 0.08 43 1014.9
20260905004833 16 206 0.0 0.0 0.00 0.08 0.08 41 1014.9
20260905004331 17 227 0.0 0.0 0.00 0.08 0.08 40 1014.9
20260905003825 17 213 0.0 0.0 0.00 0.08 0.08 40 1014.8
20260905003323 17 234 0.0 0.0 0.00 0.08 0.08 40 1014.8
20260905002822 17 288 0.0 0.0 0.00 0.08 0.08 39 1014.8
20260905002322 17 292 0.0 0.0 0.00 0.08 0.08 40 1014.8
20260905001821 17 258 0.0 0.0 0.00 0.08 0.08 40 1014.8
20260905001319 17 223 0.0 0.0 0.00 0.08 0.08 40 1014.8
20260905000816 18 248 0.0 0.0 0.00 0.08 0.08 40 1014.8
20260905000342 18 218 0.0 0.0 0.00 0.08 0.08 41 1014.8
20260904235820 17 317 0.0 0.0 0.00 0.08 0.08 42 1014.8
20260904235318 18 286 0.0 0.0 0.00 0.08 0.08 42 1014.8
20260904234844 18 275 0.0 0.0 0.00 0.08 0.08 42 1014.8
20260904234342 18 217 0.0 0.0 0.00 0.08 0.08 44 1014.8
20260904233818 18 234 0.0 0.0 0.00 0.08 0.08 45 1014.8
20260904233317 17 214 0.0 0.0 0.00 0.08 0.08 48 1014.8
20260904232843 17 220 0.0 0.0 0.00 0.08 0.08 48 1014.8
20260904232346 17 218 0.0 0.0 0.00 0.08 0.08 50 1014.8
20260904231825 17 198 0.0 0.0 0.00 0.08 0.08 50 1014.8
20260904231351 17 210 0.0 0.0 0.00 0.08 0.08 50 1014.8
20260904230829 17 188 0.0 0.0 0.00 0.08 0.08 48 1014.8
20260904230328 18 238 0.0 0.0 0.00 0.08 0.08 47 1014.8
20260904225850 18 217 0.0 0.0 0.00 0.08 0.08 48 1014.8
20260904225325 17 215 0.0 0.0 0.00 0.08 0.08 49 1014.8
20260904224825 17 225 0.0 0.0 0.00 0.08 0.08 49 1014.8
20260904224322 17 212 0.0 0.0 0.00 0.08 0.08 49 1014.8
20260904223821 17 234 0.0 0.0 0.00 0.08 0.08 50 1014.9
20260904223317 17 182 0.0 0.0 0.00 0.08 0.08 50 1014.9
20260904222822 18 229 0.0 0.0 0.00 0.08 0.08 49 1014.9
20260904222322 18 212 0.0 0.0 0.00 0.08 0.08 50 1014.9
20260904221820 18 160 0.0 0.0 0.00 0.08 0.08 50 1014.9
20260904221317 17 176 0.0 0.0 0.00 0.08 0.08 50 1014.9
20260904220816 17 225 0.0 0.0 0.00 0.08 0.08 50 1014.9
20260904220339 17 184 0.0 0.0 0.00 0.08 0.08 52 1014.9
20260904215836 17 198 0.0 0.0 0.00 0.08 0.08 52 1014.9
20260904215335 17 192 0.0 0.0 0.00 0.08 0.08 53 1014.9
20260904214833 17 216 0.0 0.0 0.00 0.08 0.08 54 1014.9
20260904214330 16 198 0.0 0.0 0.00 0.08 0.08 58 1014.9
20260904213855 16 184 0.0 0.0 0.00 0.08 0.08 59 1014.9
20260904213329 16 180 0.0 0.0 0.00 0.08 0.08 62 1014.9
20260904212826 16 215 0.0 0.0 0.00 0.08 0.08 65 1014.9
20260904212352 16 211 0.0 0.0 0.00 0.08 0.08 68 1014.9
20260904211826 16 179 0.0 0.0 0.00 0.08 0.08 69 1014.9
20260904211320 15 194 0.0 0.0 0.00 0.08 0.08 71 1014.9
20260904210845 15 215 0.0 0.0 0.00 0.08 0.08 75 1014.9
20260904210350 15 214 0.0 0.0 0.00 0.08 0.08 82 1014.9
20260904205825 15 220 0.0 0.0 0.00 0.08 0.08 83 1014.9
20260904205324 15 184 0.0 0.0 0.00 0.08 0.08 83 1014.9
20260904204825 15 181 0.0 0.0 0.00 0.08 0.08 83 1014.9
20260904204348 15 163 0.0 0.0 0.00 0.08 0.08 87 1014.9
20260904203824 15 173 0.0 0.0 0.00 0.08 0.08 87 1014.9
20260904203347 15 186 0.0 0.0 0.00 0.08 0.08 91 1014.9
20260904202820 14 142 0.0 0.0 0.00 0.08 0.08 95 1014.9
20260904202318 14 167 0.0 0.0 0.00 0.08 0.08 95 1014.9
20260904201845 13 205 0.0 0.0 0.00 0.08 0.08 95 1014.9
20260904201333 14 165 0.0 0.0 0.00 0.08 0.08 96 1014.9
20260904200831 14 172 0.0 0.0 0.00 0.08 0.08 96 1014.9
20260904200329 13 182 0.0 0.0 0.00 0.08 0.08 96 1014.9
20260904195835 13 199 0.0 0.0 0.00 0.08 0.08 96 1014.9
20260904195332 13 173 0.0 0.0 0.00 0.08 0.08 96 1015.0
20260904194831 13 169 0.0 0.0 0.00 0.08 0.08 96 1015.0
20260904194329 13 196 0.0 0.0 0.00 0.08 0.08 96 1015.0
20260904193830 13 176 0.0 0.0 0.00 0.08 0.08 96 1015.0
20260904193329 13 172 0.0 0.0 0.00 0.08 0.08 96 1015.0
20260904192828 12 167 0.0 0.0 0.00 0.08 0.08 96 1015.0
20260904192325 12 182 0.0 0.0 0.00 0.08 0.08 96 1015.0
20260904191824 12 190 0.0 0.0 0.00 0.08 0.08 96 1015.0
20260904191351 12 170 0.0 0.0 0.00 0.08 0.08 96 1015.0
20260904190854 12 196 0.0 0.0 0.00 0.08 0.08 96 1015.0
20260904190333 12 165 0.0 0.0 0.00 0.08 0.08 96 1015.0
20260904185831 12 178 0.0 0.0 0.00 0.08 0.08 96 1015.0
20260904185330 12 175 0.0 0.0 0.00 0.08 0.08 96 1015.0
20260904184825 12 150 0.0 0.0 0.00 0.08 0.08 96 1015.0
20260904184321 12 157 0.0 0.0 0.00 0.08 0.08 96 1015.0
20260904183826 12 158 0.0 0.0 0.00 0.08 0.08 96 1015.1
20260904183325 12 128 0.0 0.0 0.00 0.08 0.08 96 1015.1
20260904182831 12 144 0.0 0.0 0.00 0.08 0.08 96 1015.1
20260904182327 11 149 0.0 0.0 0.00 0.08 0.08 96 1015.0
20260904181828 11 179 0.0 0.0 0.00 0.08 0.08 96 1015.0
20260904181327 11 179 0.0 0.0 0.00 0.08 0.08 96 1015.0
20260904180826 11 179 0.0 0.0 0.00 0.08 0.08 96 1015.0
20260904180325 11 179 0.0 0.0 0.03 0.08 0.08 96 1015.0
20260904175825 11 179 0.0 0.0 0.03 0.08 0.08 96 1015.0
20260904175323 11 179 0.0 0.0 0.03 0.08 0.08 96 1015.0
20260904174817 11 179 0.0 0.0 0.03 0.08 0.08 96 1015.0
20260904174342 11 179 0.0 0.0 0.03 0.08 0.08 96 1015.0
20260904173819 11 179 0.0 0.0 0.03 0.08 0.08 96 1014.8
20260904173347 11 179 0.0 0.0 0.05 0.08 0.08 96 1014.8
20260904172832 11 179 0.0 0.0 0.05 0.08 0.08 96 1014.8
20260904172331 11 179 0.0 0.0 0.05 0.08 0.08 96 1014.7
20260904171831 11 179 0.0 0.0 0.05 0.08 0.08 96 1014.7
20260904171330 11 179 0.0 0.0 0.05 0.08 0.08 96 1014.7
20260904170823 11 179 0.0 0.0 0.05 0.08 0.08 96 1014.5
20260904170323 11 178 0.0 0.0 0.03 0.05 0.05 96 1014.5
20260904165826 11 181 0.0 0.0 0.03 0.05 0.05 96 1014.5
20260904165350 11 172 0.0 0.0 0.03 0.05 0.05 96 1014.3
20260904164830 11 204 0.0 0.0 0.03 0.05 0.05 96 1014.3
20260904164330 11 207 0.0 0.0 0.03 0.05 0.05 96 1014.3
20260904163827 11 194 0.0 0.0 0.03 0.05 0.05 96 1014.1
20260904163326 11 194 0.0 0.0 0.00 0.03 0.03 96 1014.1
20260904162826 11 192 0.0 0.0 0.00 0.03 0.03 95 1014.1
20260904162351 11 200 0.0 0.0 0.00 0.03 0.03 95 1014.0
20260904161828 11 196 0.0 0.0 0.00 0.03 0.03 95 1014.0
20260904161329 11 173 0.0 0.0 0.00 0.03 0.03 96 1014.0
20260904160823 11 171 0.0 0.0 0.00 0.03 0.03 96 1013.9
20260904160324 11 185 0.0 0.0 0.00 0.03 0.03 95 1013.9
20260904155824 11 190 0.0 0.0 0.00 0.03 0.03 95 1013.9
20260904155349 11 193 0.0 0.0 0.00 0.03 0.03 95 1013.9
20260904154827 11 177 0.0 0.0 0.00 0.03 0.03 96 1013.9
20260904154327 11 150 0.0 0.0 0.00 0.03 0.03 95 1013.9
20260904153825 11 165 0.0 0.0 0.00 0.03 0.03 95 1013.8
20260904153324 11 165 0.0 0.0 0.00 0.03 0.03 95 1013.8
20260904152851 11 165 0.0 0.0 0.00 0.03 0.03 95 1013.8
20260904152329 11 165 0.0 0.0 0.00 0.03 0.03 95 1013.8
20260904151826 11 165 0.0 0.0 0.00 0.03 0.03 95 1013.8
20260904151323 11 165 0.0 0.0 0.00 0.03 0.03 95 1013.8
20260904150819 11 165 0.0 0.0 0.00 0.03 0.03 95 1013.8
20260904150320 11 165 0.0 0.0 0.00 0.03 0.03 95 1013.8
20260904145816 11 165 0.0 0.0 0.03 0.03 0.03 95 1013.8
20260904145400 11 165 0.0 0.0 0.03 0.03 0.03 95 1013.7
20260904144836 11 165 0.0 0.0 0.03 0.03 0.03 95 1013.7
20260904144341 11 165 0.0 0.0 0.03 0.03 0.03 94 1013.7
20260904143834 11 165 0.0 0.0 0.03 0.03 0.03 94 1013.5
20260904143352 11 165 0.0 0.0 0.03 0.03 0.03 94 1013.5
20260904142829 11 165 0.0 0.0 0.03 0.03 0.03 94 1013.5
20260904142354 11 165 0.0 0.0 0.03 0.03 0.03 94 1013.3
20260904141832 11 164 0.0 0.0 0.03 0.03 0.03 94 1013.3
20260904141356 11 164 0.0 0.0 0.03 0.03 0.03 94 1013.3
20260904140835 11 164 0.0 0.0 0.03 0.03 0.03 94 1013.1
20260904140332 11 164 0.0 0.0 0.00 0.00 0.03 94 1013.1
20260904135858 11 164 0.0 0.0 0.00 0.00 0.00 94 1013.1
20260904135336 11 164 0.0 0.0 0.00 0.00 0.00 94 1013.1
20260904134834 11 164 0.0 0.0 0.00 0.00 0.00 94 1013.1
20260904134332 11 164 0.0 0.0 0.00 0.00 0.00 93 1013.1
20260904133830 11 164 0.0 0.0 0.00 0.00 0.00 93 1013.1
20260904133332 12 164 0.0 0.0 0.00 0.00 0.00 93 1013.1
20260904132829 12 164 0.0 0.0 0.00 0.00 0.00 92 1013.1
20260904132331 12 164 0.0 0.0 0.00 0.00 0.00 92 1012.9
20260904131829 12 164 0.0 0.0 0.00 0.00 0.00 92 1012.9
20260904131330 12 164 0.0 0.0 0.00 0.00 0.00 92 1012.9
20260904130829 12 164 0.0 0.0 0.00 0.00 0.00 91 1012.7
20260904130327 12 164 0.0 0.0 0.00 0.00 0.00 91 1012.7
20260904125827 12 164 0.0 0.0 0.00 0.00 0.00 91 1012.7
20260904125326 12 164 0.0 0.0 0.00 0.00 0.00 91 1012.7
20260904124826 12 161 0.0 0.0 0.00 0.00 0.00 90 1012.7
20260904124321 12 161 0.0 0.0 0.00 0.00 0.00 90 1012.7
20260904123819 12 161 0.0 0.0 0.00 0.00 0.00 90 1012.7
20260904123317 12 161 0.0 0.0 0.00 0.00 0.00 90 1012.7
20260904122814 12 161 0.0 0.0 0.00 0.00 0.00 90 1012.7
20260904122340 12 161 0.0 0.0 0.00 0.00 0.00 90 1012.7
20260904121838 12 161 0.0 0.0 0.00 0.00 0.00 90 1012.7
20260904121338 12 159 0.0 0.0 0.00 0.00 0.00 90 1012.7
20260904120838 12 159 0.0 0.0 0.00 0.00 0.00 89 1012.6
20260904120338 12 159 0.0 0.0 0.00 0.00 0.00 89 1012.6
20260904115835 12 159 0.0 0.0 0.00 0.00 0.00 89 1012.6
20260904115334 12 159 0.0 0.0 0.00 0.00 0.00 89 1012.5
20260904114833 12 159 0.0 0.0 0.00 0.00 0.00 90 1012.5
20260904114334 12 159 0.0 0.0 0.00 0.00 0.00 90 1012.5
20260904113834 12 159 0.0 0.0 0.00 0.00 0.00 89 1012.5
20260904113334 12 159 0.0 0.0 0.00 0.00 0.00 89 1012.5
20260904112833 12 159 0.0 0.0 0.00 0.00 0.00 89 1012.5
20260904112327 12 159 0.0 0.0 0.00 0.00 0.00 89 1012.5
20260904111826 12 159 0.0 0.0 0.00 0.00 0.00 89 1012.5
20260904111325 12 159 0.0 0.0 0.00 0.00 0.00 88 1012.5
20260904110826 12 159 0.0 0.0 0.00 0.00 0.00 88 1012.5
20260904110326 12 159 0.0 0.0 0.00 0.00 0.00 88 1012.5
20260904105824 12 159 0.0 0.0 0.00 0.00 0.00 88 1012.5
20260904105323 12 159 0.0 0.0 0.00 0.00 0.00 88 1012.4
20260904104820 12 159 0.0 0.0 0.00 0.00 0.00 89 1012.4
20260904104342 12 159 0.0 0.0 0.00 0.00 0.00 89 1012.4
20260904103821 12 159 0.0 0.0 0.00 0.00 0.00 89 1012.5
20260904103321 12 159 0.0 0.0 0.00 0.00 0.00 89 1012.5
20260904102825 12 159 0.0 0.0 0.00 0.00 0.00 90 1012.5
20260904102324 12 159 0.0 0.0 0.00 0.00 0.00 90 1012.4
20260904101828 12 159 0.0 0.0 0.00 0.00 0.00 90 1012.4
20260904101328 12 159 0.0 0.0 0.00 0.00 0.00 91 1012.4
20260904100827 12 159 0.0 0.0 0.00 0.00 0.00 91 1012.5
20260904100325 12 159 0.0 0.0 0.00 0.00 0.00 91 1012.5
20260904095823 12 159 0.0 0.0 0.00 0.00 0.00 92 1012.5
20260904095346 12 208 0.0 0.0 0.00 0.00 0.00 92 1012.5
20260904094825 12 208 0.0 0.0 0.00 0.00 0.00 93 1012.5
20260904094325 12 209 0.0 0.0 0.00 0.00 0.00 93 1012.5
20260904093820 12 221 0.0 0.0 0.00 0.00 0.00 93 1012.5
20260904093328 12 225 0.0 0.0 0.00 0.00 0.00 93 1012.5
20260904092827 12 257 0.0 0.0 0.00 0.00 0.00 93 1012.5
20260904092325 12 306 0.0 0.0 0.00 0.00 0.00 93 1012.5
20260904091824 12 306 0.0 0.0 0.00 0.00 0.00 93 1012.5
20260904091322 12 306 0.0 0.0 0.00 0.00 0.00 93 1012.5
20260904090820 12 306 0.0 0.0 0.00 0.00 0.00 93 1012.6
20260904090319 12 306 0.0 0.0 0.00 0.00 0.00 93 1012.6
20260904085841 12 306 0.0 0.0 0.00 0.00 0.00 93 1012.6
20260904085339 12 306 0.0 0.0 0.00 0.00 0.00 93 1012.7
20260904084838 12 306 0.0 0.0 0.00 0.00 0.00 93 1012.7
20260904084316 12 306 0.0 0.0 0.00 0.00 0.00 93 1012.7
20260904083817 12 306 0.0 0.0 0.00 0.00 0.00 92 1012.7
20260904083315 12 306 0.0 0.0 0.00 0.00 0.00 92 1012.7
20260904082839 12 306 0.0 0.0 0.00 0.00 0.00 91 1012.7
20260904082335 12 306 0.0 0.0 0.00 0.00 0.00 91 1012.7
20260904081817 12 306 0.0 0.0 0.00 0.00 0.00 91 1012.7
20260904081339 12 306 0.0 0.0 0.00 0.00 0.00 91 1012.7
20260904080837 12 306 0.0 0.0 0.00 0.00 0.00 91 1012.8
20260904080315 12 306 0.0 0.0 0.00 0.00 0.00 90 1012.8
20260904075842 12 306 0.0 0.0 0.00 0.00 0.00 90 1012.8
20260904075337 12 306 0.0 0.0 0.00 0.00 0.00 90 1012.9
20260904074815 12 306 0.0 0.0 0.00 0.00 0.00 90 1012.9
20260904074340 12 306 0.0 0.0 0.00 0.00 0.00 90 1012.9
20260904073839 12 306 0.0 0.0 0.00 0.00 0.00 90 1012.9
20260904073316 12 306 0.0 0.0 0.00 0.00 0.00 91 1012.9
20260904072817 12 306 0.0 0.0 0.00 0.00 0.00 91 1012.9
20260904072340 12 306 0.0 0.0 0.00 0.00 0.00 91 1012.9
20260904071835 12 306 0.0 0.0 0.00 0.00 0.00 91 1012.9
20260904071315 12 306 0.0 0.0 0.00 0.00 0.00 91 1012.9
20260904070815 12 306 0.0 0.0 0.00 0.00 0.00 91 1012.9
20260904070339 12 306 0.0 0.0 0.00 0.00 0.00 90 1012.9
20260904065831 12 306 0.0 0.0 0.00 0.00 0.00 90 1012.9
20260904065329 12 306 0.0 0.0 0.00 0.00 0.00 90 1012.7
20260904064826 12 306 0.0 0.0 0.00 0.00 0.00 89 1012.7
20260904064325 12 306 0.0 0.0 0.00 0.00 0.00 89 1012.7
20260904063848 12 306 0.0 0.0 0.00 0.00 0.00 89 1012.7
20260904063328 12 306 0.0 0.0 0.00 0.00 0.00 89 1012.7
20260904062827 12 306 0.0 0.0 0.00 0.00 0.00 89 1012.7
20260904062317 12 306 0.0 0.0 0.00 0.00 0.00 88 1012.5
20260904061816 12 306 0.0 0.0 0.00 0.00 0.00 88 1012.5
20260904061341 12 306 0.0 0.0 0.00 0.00 0.00 88 1012.5
20260904060840 12 306 0.0 0.0 0.00 0.00 0.00 88 1012.7
20260904060339 12 306 0.0 0.0 0.00 0.00 0.00 88 1012.7
20260904055815 12 306 0.0 0.0 0.00 0.00 0.00 88 1012.7
20260904055316 12 306 0.0 0.0 0.00 0.00 0.00 88 1012.9
20260904054842 12 306 0.0 0.0 0.00 0.00 0.00 88 1012.9
20260904054319 12 306 0.0 0.0 0.00 0.00 0.00 88 1012.9
20260904053818 12 306 0.0 0.0 0.00 0.00 0.00 88 1013.1
20260904053317 12 306 0.0 0.0 0.00 0.00 0.00 88 1013.1
20260904052857 12 306 0.0 0.0 0.00 0.00 0.00 88 1013.1
20260904052334 12 306 0.0 0.0 0.00 0.00 0.00 88 1013.2
20260904051839 12 306 0.0 0.0 0.00 0.00 0.00 88 1013.2
20260904051336 12 306 0.0 0.0 0.00 0.00 0.00 88 1013.2
20260904050814 12 306 0.0 0.0 0.00 0.00 0.00 88 1013.4
20260904050341 12 306 0.0 0.0 0.00 0.00 0.00 88 1013.4
20260904045815 12 306 0.0 0.0 0.00 0.00 0.00 88 1013.4
20260904045314 12 306 0.0 0.0 0.00 0.00 0.00 88 1013.5
20260904044814 12 306 0.0 0.0 0.00 0.00 0.00 88 1013.5
20260904044337 13 306 0.0 0.0 0.00 0.00 0.00 88 1013.5